Tracking 25710 objects as of 4-Jul-2022
HD Live streaming from Space Station
objects crossing your sky now

GORIZONT 2

Track GORIZONT 2 now!
GORIZONT 2 is classified as:


NORAD ID: 11440
Int'l Code: 1979-062A
Perigee: 35,788.3 km
Apogee: 35,804.1 km
Inclination: 9.2 °
Period: 1,436.2 minutes
Semi major axis: 42167 km
RCS: 3.981 m2 (large)
Launch date: July 5, 1979
Source: Commonwealth of Independent States (former USSR) (CIS)
Launch site: TYURATAM MISSILE AND SPACE COMPLEX (TTMTR)
aabbcc
Your satellite tracking list
Your tracking list is empty




NASA's NSSDC Master Catalog

Two Line Element Set (TLE):
1 11440U 79062A   22184.87675405  .00000055  00000-0  00000-0 0  9993
2 11440   9.2483 301.6659 0001878 213.8845 142.1847  1.00263055123536
Source of the keplerian elements: AFSPC